OBJECT S, 57182

Orbit data source: Space-Track

You're viewing an Uncataloged Satellite

Recently launched and/or uncataloged satellites may have evolving metadata. Metadata may include but not limited to: Owner, Maufacturer, Bus, Motor, and Mission.

OBJECT S, 57182 is a satellite in SSO that was launched on Tue, 27 Jun 2023 UTC via a SOYUZ-2-1B launch vehicle from the Vostochny Cosmodrome (VOSTO). Unknown objects in Earth's orbit typically refer to objects detected orbiting the Earth but have not yet been identified or cataloged. These objects could be anything from previously untracked satellites, spent rocket stages, debris from satellite collisions, or even natural meteoroids temporarily captured by Earth's gravity.

Loading next visibility...
Identifier
57182, 2023-091S
Orbit
SSO
Country
Flag of TBDTBD
Related business
Manufacturer
Sputniks
Mission
Operational Amateur Science
Bus & Motor
CUBESAT 3U, Unknown motor
Mass
5 kg wet, 5 kg dry
Launch date (UTC)
2023-06-27 (2 years ago)
Launch vehicle
SOYUZ-2-1B
Launch site
Vostochny Cosmodrome (VOSTO)
Object type
Unknown
Shape & HBR
Box, 0.1 m
Radar Cross Section
0.035 m², Small (<0.1 m²)

Expand to show TLE details & history
Last TLE update: 10 hours ago

TLE from 10 hours ago
0 OBJECT S
1 57182U 23091S   25304.87861152  .00013819  00000-0  60361-3 0  9991
2 57182  97.5429   2.0844 0013433 176.4838 183.6494 15.22150499129498
Epoch: 2025-10-31T21:05Z
TLE epoch observation values (Epoch: 2025-10-31T21:05:12.035Z)
Latitude
-0.00009°
Longitude
5.36754°
Altitude
511.666 km
Speed
7.603 km/s
True Right ascension
00h 08m 20s
True Declination
0° 00' 00"
Sunlit
Object was in full shadow at epoch
Visualization orbit readout
Latitude
Unknown
Longitude
Unknown
Altitude
Unknown
Speed
Unknown
Apparent Right ascension
Unknown
Apparent Declination
Unknown
Sunlit
N/A
Visualization observer readout
Local Sidereal Time
02:51:23
Azimuth
Unknown
Elevation
Unknown
Doppler factor
Unknown
Orbital elements
Apogee altitude
505.559 km
Perigee altitude
487.09 km
Semi-major axis
6,874.461 km
Eccentricity
0.00134
Inclination
97.5429°
RAAN
2.0844°
Arg. of periapsis
176.4838°
True anomaly
183.63962°
Mean anomaly
183.6494°
Eccentric anomaly
183.64451°
Mean motion
3.8079 °/min
Orbital period
94.54 mins
BSTAR
0.00060361
Loading maneuver chart data...
Computing Atmospheric mass density...
Loading historical data...
Loading historical data...
Loading historical data...
Loading historical data...
Loading historical data...
Loading historical data...
Loading historical data...

Documentation

Showing up to 5 results
|